EW0765 Weather Reports


Display with metric or nautical units.
time (UTC)temp
F
wind
direction
speed
MPH
gust
MPH
rain 1hr
in
rain 24hr
in
rain mn
in
humidity
%
barometer
mb
20260506043030 47 14 0.0 0.0 0.05 0.98 0.02 93 1008.2
20260506041528 48 14 0.0 0.0 0.06 0.97 0.01 93 1008.4
20260506040026 48 43 0.0 4.0 0.08 0.96 0.96 93 1008.5
20260506034524 49 326 0.0 0.0 0.09 0.94 0.94 94 1008.7
20260506033023 49 12 0.0 0.0 0.12 0.93 0.93 93 1008.8
20260506031522 50 316 0.0 0.0 0.14 0.91 0.91 94 1008.8
20260506030030 50 316 0.0 0.0 0.14 0.88 0.88 94 1008.9
20260506024535 50 315 0.0 0.0 0.15 0.85 0.85 94 1008.9
20260506023019 50 315 0.0 0.0 0.14 0.81 0.81 94 1008.5
20260506021517 50 313 0.0 0.0 0.12 0.77 0.77 93 1008.3
20260506020015 50 311 0.0 0.0 0.09 0.73 0.73 94 1008.1
20260506014518 50 244 0.0 0.0 0.07 0.70 0.70 94 1008.1
20260506013015 50 244 0.0 0.0 0.06 0.67 0.67 94 1008.1
20260506011514 50 244 0.0 0.0 0.08 0.65 0.65 94 1008.0
20260506010014 50 244 0.0 0.0 0.09 0.64 0.64 94 1007.8
20260506004512 50 235 0.0 0.0 0.08 0.63 0.63 94 1008.0
20260506003015 50 91 0.0 0.0 0.07 0.61 0.61 93 1007.7
20260506001511 50 90 0.0 0.0 0.03 0.56 0.56 93 1007.4
20260506000011 51 88 0.0 0.0 0.03 0.55 0.55 93 1007.5
20260505234512 51 88 0.0 0.0 0.07 0.55 0.55 93 1007.3
20260505233010 51 113 0.0 0.0 0.14 0.54 0.54 93 1007.3
20260505231510 51 323 0.0 0.0 0.15 0.54 0.54 93 1007.8
20260505230021 51 302 0.0 0.0 0.15 0.52 0.52 93 1007.8
20260505224506 51 54 0.0 0.0 0.13 0.47 0.47 92 1007.9
20260505223002 53 17 0.0 4.0 0.09 0.40 0.40 92 1007.4
20260505221602 53 53 0.0 2.0 0.11 0.39 0.39 92 1007.5
20260505220057 54 32 0.0 0.0 0.14 0.40 0.37 92 1007.2
20260505214555 55 68 0.0 0.0 0.17 0.37 0.34 91 1007.1
20260505213057 57 5 0.0 3.0 0.18 0.34 0.31 90 1007.1
20260505211551 58 295 0.0 2.0 0.17 0.30 0.27 92 1006.8
20260505210047 58 252 0.0 0.0 0.17 0.26 0.23 92 1007.1
20260505204545 59 232 0.0 1.0 0.11 0.19 0.16 90 1006.8
20260505203045 59 251 0.0 0.0 0.09 0.16 0.13 91 1006.7
20260505201547 59 250 0.0 0.0 0.07 0.13 0.10 90 1006.7
20260505200044 59 251 0.0 5.0 0.03 0.09 0.06 88 1006.7
20260505194539 60 269 0.0 0.0 0.02 0.08 0.05 86 1007.0
20260505193038 61 230 0.0 3.0 0.00 0.06 0.03 83 1007.0
20260505191536 63 271 0.0 8.0 0.00 0.06 0.03 79 1006.8
20260505190035 64 196 0.0 3.0 0.00 0.06 0.03 75 1006.9
20260505184535 64 249 0.0 3.0 0.00 0.06 0.03 72 1006.9
20260505183038 64 236 0.0 4.0 0.00 0.06 0.03 72 1006.9
20260505181534 65 211 1.0 8.0 0.00 0.06 0.03 70 1007.0
20260505180045 65 200 0.0 4.0 0.00 0.06 0.03 70 1006.9
20260505174538 65 285 0.0 4.0 0.00 0.06 0.03 70 1006.7
20260505173032 65 280 0.0 12.0 0.00 0.06 0.03 70 1006.7
20260505171533 66 253 0.0 10.0 0.00 0.06 0.03 69 1006.7
20260505170030 65 286 0.0 12.0 0.01 0.06 0.03 68 1006.7
20260505164529 66 304 0.0 12.0 0.01 0.06 0.03 66 1006.6
20260505163030 66 227 0.0 13.0 0.01 0.06 0.03 66 1006.5
20260505161527 67 224 0.0 11.0 0.01 0.06 0.03 65 1006.5
20260505153022 69 207 0.0 12.0 0.00 0.05 0.02 64 1005.6
20260505151519 68 208 1.0 6.0 0.00 0.05 0.02 62 1005.1
20260505124511 61 172 0.0 3.0 0.00 0.05 0.02 77 1005.4
20260505123014 61 266 0.0 6.0 0.00 0.05 0.02 77 1005.3
20260505121503 61 260 0.0 4.0 0.00 0.05 0.02 76 1005.1
20260505120104 60 221 0.0 0.0 0.00 0.05 0.02 77 1004.5
20260505114601 60 213 0.0 0.0 0.00 0.05 0.02 78 1003.9
20260505113057 60 237 0.0 2.0 0.00 0.05 0.02 77 1004.0
20260505111554 61 228 0.0 10.0 0.00 0.05 0.02 75 1003.9
20260505101602 63 204 0.0 4.0 0.00 0.05 0.02 70 1003.7
20260505100100 63 205 0.0 3.0 0.00 0.05 0.02 69 1003.4
20260505094545 64 221 0.0 3.0 0.00 0.05 0.02 68 1003.1
20260505093048 64 219 1.0 12.0 0.00 0.05 0.02 67 1002.9
20260505091544 64 225 0.0 9.0 0.00 0.05 0.02 67 1002.6
20260505091515 64 165 0.0 9.0 0.00 0.05 0.02 68 1002.7
20260505090043 64 224 0.0 5.0 0.00 0.05 0.02 67 1002.4
20260505084543 65 302 0.0 13.0 0.00 0.05 0.02 67 1002.4
20260505083042 65 246 1.0 6.0 0.00 0.05 0.02 68 1002.4
20260505081553 65 258 0.0 6.0 0.00 0.05 0.02 68 1002.6
20260505080048 64 209 1.0 9.0 0.00 0.05 0.02 69 1002.3
20260505074541 64 307 0.0 11.0 0.01 0.05 0.02 72 1002.2
20260505073040 63 256 0.0 6.0 0.02 0.05 0.02 75 1002.2
20260505071548 62 302 0.0 2.0 0.02 0.05 0.02 78 1002.0
20260505070035 63 242 0.0 4.0 0.02 0.05 0.02 77 1002.1
20260505064531 65 184 0.0 5.0 0.01 0.04 0.01 72 1002.4
20260505063033 64 169 0.0 4.0 0.00 0.03 0.00 69 1002.3
20260505061534 64 234 0.0 2.0 0.00 0.03 0.00 69 1002.4
20260505060028 65 286 0.0 2.0 0.00 0.03 0.00 69 1002.6
20260505054529 65 229 0.0 2.0 0.00 0.03 0.00 69 1002.7
20260505053036 65 252 0.0 2.0 0.00 0.03 0.00 69 1002.9
20260505051537 65 230 0.0 3.0 0.00 0.03 0.00 69 1003.1